TimeCDT,TemperatureF,Dew PointF,Humidity,Sea Level PressureIn,VisibilityMPH,Wind Direction,Wind SpeedMPH,Gust SpeedMPH,PrecipitationIn,Events,Conditions,WindDirDegrees,DateUTC
12:54 AM,50.0,44.1,80,29.99,10.0,South,3.5,-,N/A,,Overcast,180,2012-10-22 05:54:00
1:54 AM,48.9,44.1,83,29.98,10.0,SE,3.5,-,N/A,,Overcast,140,2012-10-22 06:54:00
2:54 AM,48.0,44.1,86,29.97,10.0,Calm,Calm,-,N/A,,Clear,0,2012-10-22 07:54:00
3:54 AM,44.1,42.1,93,29.98,7.0,Calm,Calm,-,N/A,,Clear,0,2012-10-22 08:54:00
4:54 AM,44.1,42.1,93,29.98,8.0,Calm,Calm,-,N/A,,Clear,0,2012-10-22 09:54:00
5:54 AM,44.1,42.1,93,30.00,6.0,Calm,Calm,-,N/A,,Clear,0,2012-10-22 10:54:00
6:54 AM,42.1,41.0,96,30.00,4.0,North,3.5,-,N/A,,Clear,350,2012-10-22 11:54:00
7:54 AM,42.1,41.0,96,30.02,6.0,Calm,Calm,-,N/A,,Clear,0,2012-10-22 12:54:00
8:54 AM,45.0,43.0,93,30.03,5.0,Calm,Calm,-,N/A,,Clear,0,2012-10-22 13:54:00
9:54 AM,50.0,45.0,83,30.04,10.0,Calm,Calm,-,N/A,,Clear,0,2012-10-22 14:54:00
10:54 AM,57.9,45.0,62,30.04,10.0,ENE,5.8,-,N/A,,Clear,60,2012-10-22 15:54:00
11:54 AM,61.0,45.0,56,30.01,10.0,East,6.9,-,N/A,,Clear,80,2012-10-22 16:54:00
12:54 PM,64.0,45.0,50,30.00,10.0,ENE,8.1,-,N/A,,Clear,60,2012-10-22 17:54:00
1:54 PM,64.0,45.0,50,30.01,10.0,East,6.9,-,N/A,,Mostly Cloudy,90,2012-10-22 18:54:00
2:54 PM,63.0,45.0,52,29.99,10.0,East,6.9,-,N/A,,Overcast,90,2012-10-22 19:54:00
3:54 PM,63.0,44.1,50,29.99,10.0,NE,9.2,-,N/A,,Mostly Cloudy,50,2012-10-22 20:54:00
4:54 PM,60.1,44.1,55,30.01,10.0,ENE,6.9,-,N/A,,Overcast,70,2012-10-22 21:54:00
5:54 PM,57.0,44.1,62,30.01,10.0,Variable,4.6,-,N/A,,Mostly Cloudy,0,2012-10-22 22:54:00
6:54 PM,55.9,45.0,67,30.03,10.0,NE,6.9,-,N/A,,Overcast,40,2012-10-22 23:54:00
7:54 PM,53.1,45.0,74,30.03,10.0,NNE,8.1,-,N/A,,Overcast,20,2012-10-23 00:54:00
8:54 PM,51.1,45.0,80,30.04,10.0,North,8.1,-,N/A,,Overcast,10,2012-10-23 01:54:00
9:54 PM,50.0,45.0,83,30.03,10.0,NNE,6.9,-,N/A,,Overcast,30,2012-10-23 02:54:00
10:54 PM,50.0,44.1,80,30.01,10.0,NNE,6.9,-,N/A,,Overcast,30,2012-10-23 03:54:00